Location: Acheville
(50.3840°N, 2.8827°E)
Time: 10:27:29
(UTC+00:00)

Cosmos 1943 Rocket - Pass Details

Date: 24 October 2021
Orbit: 811 x 845 km, 71.0° (Epoch: 30 November)

Event Time Altitude Azimuth Distance (km) Brightness Sun altitude
Rises 18:40:41 0° 330° (NNW) 3,415 5.9 -20.1°
Reaches altitude 10° 18:44:37 10° 356° (N) 2,478 4.7 -20.7°
Maximum altitude 18:47:19 13° 25° (NNE) 2,240 4.2 -21.1°
Enters shadow 18:47:58 13° 32° (NNE) 2,254 4.2 -21.2°
